Wind_Speed
20 20 20 20 20 20 20 20 19 19 19 19 18 17 17 16 15 14 14 13 13 12 12 12 13 15 15 16 16 17 17 16 16 16 18 21 22 19 17 17 17 18 18 16 17 19 19 19 19 19 18 17 15 15 13 12 13 12 11 11 11 8 5 8 7 7 7 3 4 5 2 2 0 1 2 1 1 2 2 2 3 4 6 8 10 10 8 5
20 19 19 19 19 19 20 20 20 20 20 20 19 19 18 18 18 17 16 16 15 15 14 13 13 14 16 17 17 18 18 17 17 16 18 21 21 20 19 18 18 20 19 18 20 22 23 22 23 22 21 20 19 17 15 15 15 13 12 12 12 10 7 9 8 8 8 4 4 4 3 3 2 1 2 2 2 2 3 3 4 4 5 6 8 9 10 8
18 18 18 18 18 18 19 19 19 19 19 20 20 20 19 19 19 19 18 18 17 17 17 16 15 15 16 17 18 18 18 18 17 17 19 20 20 22 22 21 20 21 20 21 23 24 25 25 24 23 23 22 20 19 18 17 16 15 14 12 13 11 8 9 9 8 8 6 5 4 4 4 2 1 3 2 3 4 4 4 5 5 5 6 7 8 8 9
17 17 17 17 17 17 17 17 18 18 19 19 19 20 19 19 19 19 19 19 19 19 19 19 18 17 16 17 18 18 19 19 18 18 19 20 20 21 23 23 23 23 22 21 21 22 23 23 22 22 22 20 19 19 18 18 18 17 15 15 13 11 10 10 10 10 9 7 7 5 5 5 2 1 3 3 4 5 5 5 5 6 7 7 7 7 6 9
15 16 16 15 16 16 16 16 17 17 18 18 18 19 19 19 19 19 19 20 20 20 20 20 20 20 19 18 18 19 20 19 19 20 19 20 20 21 23 24 24 24 24 22 21 20 20 21 22 22 21 20 19 18 18 18 19 18 16 17 14 12 13 12 12 11 10 9 8 7 7 5 3 3 3 4 5 5 5 5 5 6 7 7 7 5 5 9
15 15 16 16 16 16 16 17 17 17 18 18 18 18 19 19 19 19 19 19 20 20 20 21 21 21 21 21 20 20 20 18 19 20 19 21 22 22 23 23 24 25 25 24 22 21 19 20 22 22 21 21 20 18 19 20 20 19 18 17 15 15 16 12 12 12 11 10 9 8 8 6 4 4 4 5 6 5 5 5 5 6 7 8 9 6 5 8
16 16 16 16 16 16 17 17 17 18 18 18 18 18 19 19 19 19 19 19 20 20 21 21 22 22 22 23 23 23 22 18 19 20 19 21 22 23 23 22 24 26 27 26 24 23 22 22 21 22 22 22 22 21 21 21 20 21 19 17 17 17 16 13 13 13 12 12 10 9 9 7 5 5 5 5 7 6 6 5 5 6 6 7 9 9 6 7
16 17 17 17 17 17 17 17 18 18 18 18 18 18 19 19 20 20 20 20 20 21 21 21 22 22 23 24 24 25 23 20 21 21 20 21 23 24 24 23 23 25 27 28 27 26 25 24 23 23 23 23 24 23 23 22 21 21 20 19 18 18 17 15 14 14 13 12 11 9 10 8 6 6 6 5 7 7 7 5 5 6 6 6 7 10 9 6
17 17 18 18 17 17 17 18 18 18 18 18 18 18 19 19 19 20 21 21 21 21 22 22 23 23 23 24 25 26 24 24 23 22 21 22 24 25 25 24 24 25 27 29 29 29 27 26 26 26 26 26 26 25 25 23 23 23 23 21 19 18 17 16 15 14 14 13 12 11 11 10 8 7 6 6 8 7 6 6 5 6 5 6 8 10 11 9
17 18 18 18 18 18 18 18 19 19 19 19 19 19 19 19 19 19 20 21 22 22 23 23 24 24 24 25 26 25 25 26 25 24 24 23 25 26 26 25 25 26 26 28 30 30 30 29 30 30 30 29 27 27 26 25 26 25 24 22 19 18 17 17 16 15 14 14 14 14 14 12 10 8 8 8 8 6 6 6 6 6 6 6 8 9 11 11
19 20 20 20 20 20 20 21 21 21 22 22 22 22 22 22 21 21 21 21 22 22 23 24 25 25 25 26 27 26 26 26 25 26 26 25 26 26 26 26 26 27 27 28 29 31 32 33 34 33 32 29 28 29 27 26 27 25 23 22 20 19 18 18 17 16 15 17 17 15 15 13 11 9 9 9 8 6 6 7 7 7 7 7 8 9 10 12
21 22 22 22 22 23 23 23 23 23 24 24 24 25 25 25 24 24 24 24 23 23 23 24 25 26 27 27 28 27 28 27 25 27 28 27 28 28 27 27 27 28 28 29 30 31 33 35 35 34 32 31 30 31 29 28 28 26 24 22 21 22 20 18 17 17 16 18 17 15 15 15 13 11 11 10 8 7 7 8 9 8 8 8 8 9 11 13
23 24 24 24 24 24 24 24 24 24 25 25 25 26 26 26 26 26 26 26 26 26 26 25 25 26 27 29 29 29 29 28 26 27 28 29 30 30 30 29 28 29 29 31 31 32 33 34 35 35 35 33 33 33 31 29 28 26 25 24 23 23 20 18 19 18 17 18 18 16 16 15 14 13 13 11 9 9 9 10 9 9 9 9 9 10 11 15
25 26 26 26 26 26 26 26 26 26 26 26 27 27 27 28 28 29 29 29 29 29 28 28 27 27 28 29 30 30 30 30 28 27 28 29 30 31 32 31 30 29 30 32 32 33 33 33 34 36 37 35 35 34 29 28 28 27 27 26 25 22 20 20 21 20 18 19 20 17 16 16 15 15 14 13 11 10 10 11 11 10 10 10 9 10 12 15
27 27 27 28 28 28 28 28 28 28 28 28 28 28 28 28 28 29 30 30 30 31 31 31 31 30 30 29 30 31 32 32 31 30 29 29 30 32 33 33 32 31 31 32 33 34 34 34 34 35 36 35 36 34 29 29 30 29 29 27 24 22 21 21 22 22 20 20 21 18 17 17 16 16 16 15 13 12 11 11 12 11 11 10 10 10 11 12
29 29 29 29 30 30 30 30 30 31 31 31 30 30 30 29 29 29 29 30 30 31 32 33 33 33 33 32 31 32 33 33 33 32 32 31 31 32 34 35 35 34 34 33 34 34 35 35 35 35 36 36 36 34 31 33 33 31 31 28 25 22 21 21 24 23 20 21 21 20 19 19 17 16 17 16 14 13 12 12 13 12 11 11 11 11 10 10
30 30 31 31 31 32 32 32 32 33 33 33 33 33 33 32 32 31 31 31 31 31 32 33 34 35 35 34 33 34 34 35 35 34 34 33 33 32 33 35 36 37 36 35 35 35 36 36 36 36 35 35 35 36 36 36 34 32 32 30 26 24 22 23 25 23 22 23 22 21 21 20 18 17 17 17 15 14 13 13 13 13 12 12 12 11 10 11
32 32 32 32 32 33 33 34 34 34 35 35 35 35 36 36 35 35 35 35 35 34 34 35 35 37 37 36 36 37 36 36 36 36 36 36 35 34 34 36 37 38 39 38 37 36 37 37 37 37 36 36 35 35 36 34 32 33 34 30 27 27 25 24 25 23 24 25 25 24 22 22 21 17 16 16 16 16 15 15 15 14 13 13 13 12 12 12
34 33 33 33 33 33 34 35 35 35 35 36 36 37 38 38 38 38 38 38 38 37 37 36 37 38 39 37 38 39 38 37 37 38 38 38 38 36 36 36 37 38 40 40 39 38 39 38 39 39 37 34 31 31 31 29 31 35 35 31 30 30 27 26 26 24 25 27 27 26 23 23 24 20 18 18 18 18 17 17 16 15 14 13 14 14 13 13
35 34 34 34 34 34 35 35 35 35 35 36 37 38 39 39 40 40 39 40 40 39 39 38 38 39 40 39 39 40 40 40 39 39 39 40 40 39 38 38 38 39 40 41 41 41 41 40 40 37 32 30 30 30 29 30 36 39 36 33 34 34 30 29 26 22 24 25 26 27 26 25 26 25 23 21 20 20 19 18 17 16 15 15 16 16 15 14
34 34 34 34 34 35 35 35 34 34 35 35 36 37 37 38 39 40 39 39 38 38 38 38 38 39 40 40 41 41 42 42 42 41 41 41 41 42 41 40 40 40 40 41 43 44 43 43 40 32 30 33 34 33 32 34 38 38 35 34 37 36 32 32 28 23 25 25 25 27 29 29 28 28 25 21 20 22 21 20 19 18 17 17 18 17 16 13
33 33 33 33 33 34 33 32 32 32 32 33 33 33 33 33 34 35 35 35 33 32 33 34 35 37 38 40 41 42 43 44 43 43 43 42 43 44 43 42 42 41 40 42 44 45 45 45 38 32 33 36 36 37 36 36 36 35 34 35 37 37 34 35 33 28 26 26 26 28 28 29 29 29 27 23 21 23 23 21 21 21 20 20 19 18 17 14
32 32 32 32 32 31 30 29 28 28 28 28 28 26 26 26 26 26 27 28 26 26 27 29 31 34 36 38 39 41 43 45 45 44 44 43 44 46 46 45 44 44 43 44 46 45 45 43 36 35 37 37 38 40 38 36 36 34 34 36 38 38 37 38 36 32 30 27 25 28 30 29 30 30 30 28 25 24 25 24 23 23 23 22 20 19 18 15
30 30 31 31 31 28 26 24 22 22 22 22 21 20 19 18 18 18 19 21 22 22 23 25 27 30 32 34 36 38 41 44 46 45 45 45 46 47 47 47 46 46 46 46 46 45 44 40 37 41 42 39 40 40 38 37 37 35 34 36 38 39 39 38 33 29 34 35 29 29 33 32 32 33 32 31 29 27 27 27 26 24 25 25 21 20 20 16
28 28 29 29 28 24 20 18 17 17 18 18 17 16 15 14 14 15 16 19 22 21 22 25 26 27 29 30 32 34 37 42 44 46 46 47 48 47 47 48 48 48 48 47 47 46 44 40 41 47 46 43 41 40 39 39 38 37 35 35 37 40 41 40 35 27 31 40 36 33 36 36 35 35 33 33 32 31 30 29 28 27 26 26 23 22 22 19
27 26 26 25 23 20 16 14 15 16 17 16 16 15 14 14 15 17 18 22 25 22 22 26 26 26 27 28 28 30 35 38 40 43 46 47 48 48 48 49 49 50 50 50 49 48 46 42 45 50 48 46 44 41 40 39 39 39 37 37 39 41 43 43 43 38 38 40 36 35 39 38 36 37 37 35 33 33 33 31 29 29 29 28 26 25 23 21
25 24 22 20 19 17 16 15 16 17 18 18 18 19 18 19 19 22 22 24 26 24 21 23 24 23 25 25 24 26 31 34 36 40 43 46 48 48 48 49 50 51 51 53 53 51 48 44 46 50 49 48 48 45 42 39 39 41 40 41 41 42 44 45 46 48 48 43 37 38 40 39 37 36 37 38 37 35 34 34 32 31 31 29 28 26 24 21
22 20 19 18 17 16 17 18 19 20 21 22 22 22 23 24 24 26 25 23 26 26 23 23 23 22 24 24 22 23 25 28 32 36 38 41 45 47 47 49 50 51 52 54 53 53 51 46 47 50 49 50 50 47 43 40 42 42 40 43 45 43 43 45 45 48 49 46 44 39 35 39 43 39 34 37 41 40 36 36 35 33 32 30 29 28 25 22
18 18 18 18 18 18 18 20 22 22 23 22 22 22 22 23 23 25 25 25 27 27 25 24 23 22 23 23 22 21 22 24 27 30 32 36 41 43 46 49 51 52 54 56 55 54 52 48 50 53 50 49 49 47 45 45 46 43 42 47 48 44 43 43 45 46 48 50 49 41 33 39 47 44 37 35 38 40 38 37 36 35 34 31 31 30 26 23
17 18 19 19 19 19 20 21 22 22 22 20 19 19 19 20 21 21 22 24 24 22 23 23 22 22 21 22 22 20 19 20 22 25 27 30 35 39 43 46 49 51 53 56 56 55 55 52 53 55 52 48 48 48 49 51 49 44 45 50 47 43 42 43 43 45 49 53 52 46 39 37 42 45 44 39 35 35 35 37 39 37 35 32 32 31 27 25
17 18 18 19 20 21 21 21 21 21 21 20 19 19 18 19 19 19 21 22 21 21 23 22 21 22 21 21 21 18 16 17 17 20 23 25 28 33 38 40 43 48 50 53 55 54 56 56 57 58 55 51 50 51 53 55 53 48 47 49 46 43 42 43 43 46 52 54 51 49 48 44 43 45 44 42 40 37 33 35 37 37 36 34 33 33 31 29
17 18 19 20 21 22 22 22 21 21 21 20 20 19 19 20 18 19 21 20 20 21 19 20 22 22 20 21 21 19 18 17 15 17 21 22 24 28 32 34 40 46 46 48 51 52 55 57 57 59 59 55 52 53 56 57 55 52 51 49 47 45 45 44 45 48 52 53 50 48 50 52 50 46 43 42 43 42 40 38 35 34 37 35 34 37 35 32
18 19 20 22 23 23 23 23 22 22 22 22 21 20 20 20 19 20 21 19 21 20 19 22 24 22 22 23 24 21 22 22 18 17 19 19 22 26 28 31 37 42 41 42 45 46 52 56 57 59 59 57 55 54 56 57 56 54 53 52 49 47 48 49 48 49 51 51 50 48 50 55 53 46 46 45 42 42 45 47 41 35 36 36 36 38 37 35
18 20 22 23 24 24 24 24 23 23 23 22 21 21 20 20 21 22 22 21 21 21 22 23 24 24 25 27 27 25 25 27 23 21 21 20 21 22 25 31 34 35 37 41 41 39 43 48 54 60 61 59 57 56 56 55 55 56 54 53 52 50 49 48 47 48 50 48 48 49 51 54 53 47 46 47 46 42 37 41 45 42 39 37 36 38 38 37
19 21 23 24 24 25 24 23 23 22 22 22 20 20 21 21 23 23 23 22 20 21 22 21 23 25 26 29 29 27 28 30 27 24 25 25 22 20 24 27 28 30 33 38 40 38 39 37 38 48 58 60 58 55 56 56 54 55 55 54 54 53 49 44 42 44 47 46 45 49 52 51 51 51 47 46 48 46 38 38 45 47 43 38 36 38 40 39
20 22 23 24 24 23 22 22 21 19 19 19 17 19 21 22 23 23 23 23 22 22 21 21 23 23 26 30 29 27 29 30 30 29 28 31 31 30 30 25 23 28 31 34 37 39 41 34 24 27 42 57 61 57 55 57 53 49 53 58 56 53 50 46 42 41 45 47 43 45 50 50 52 52 49 50 50 50 50 46 43 46 46 38 34 36 38 38
22 22 23 24 23 21 20 19 18 16 15 15 15 18 21 21 23 22 22 23 23 22 20 22 24 22 23 27 28 30 26 24 32 32 27 33 37 36 36 31 28 29 30 32 34 37 42 37 29 27 30 41 54 58 57 59 54 39 37 51 56 52 52 51 45 43 48 50 44 39 41 45 52 54 51 52 52 48 50 48 42 45 47 40 36 38 38 37
21 22 23 23 22 20 19 18 17 15 13 14 14 17 20 20 21 21 21 22 22 22 21 23 26 23 22 25 28 32 26 22 32 33 27 33 39 39 38 37 35 33 32 32 32 38 43 41 39 39 36 32 39 51 56 58 60 46 28 32 47 53 55 56 51 49 51 51 46 41 39 38 44 51 52 52 49 43 43 44 43 44 46 42 40 41 41 39
21 21 22 23 21 20 19 18 17 16 14 15 15 16 18 19 19 20 21 21 21 23 23 24 26 24 24 27 28 30 30 26 30 32 29 31 38 41 41 39 38 37 36 35 36 40 43 43 43 42 39 35 31 37 45 47 54 56 40 28 35 43 50 57 58 55 52 48 44 39 39 44 45 47 50 50 46 42 40 41 42 44 45 43 42 44 44 41
21 20 21 22 21 20 19 18 17 15 14 15 16 16 16 17 18 18 20 21 21 23 24 23 24 25 27 27 26 30 32 28 27 31 32 33 37 44 44 40 39 40 38 37 39 41 41 42 44 42 36 33 31 33 41 43 45 52 53 43 35 33 39 48 54 57 56 52 46 35 29 36 43 46 49 50 46 41 39 39 40 42 43 43 44 46 46 42
21 21 22 22 21 20 19 17 16 15 14 14 15 16 17 17 17 17 18 20 21 22 23 23 24 26 26 24 26 30 30 28 28 30 32 35 38 43 46 41 38 39 40 39 39 42 44 44 45 46 38 33 34 33 37 43 39 39 47 48 40 32 32 37 41 50 58 57 52 42 25 17 23 31 40 49 50 43 37 37 38 40 41 44 46 46 47 43
21 21 21 22 21 20 19 17 16 15 15 15 15 16 17 17 17 17 17 19 20 20 22 23 22 23 24 23 25 28 28 29 31 30 32 37 38 42 47 44 39 38 39 40 41 44 46 46 47 50 43 35 32 28 30 36 35 33 37 41 38 31 30 33 33 37 49 58 57 49 32 20 21 24 27 40 50 47 38 35 38 41 42 45 48 48 47 44
21 21 21 21 21 20 19 17 15 15 15 16 15 16 16 16 16 16 16 17 18 18 19 21 20 20 23 22 22 26 29 31 33 33 34 38 40 43 47 45 40 38 38 40 44 44 40 41 46 49 47 41 36 33 35 36 35 36 39 41 41 36 31 30 30 30 37 47 55 56 41 24 26 32 31 37 44 43 40 37 37 42 45 46 49 49 45 43
21 21 21 21 20 20 19 17 16 15 14 14 15 15 15 14 14 14 14 15 16 15 16 18 18 19 22 23 23 26 28 30 33 36 36 36 37 39 44 44 39 38 41 43 44 42 38 40 44 45 47 48 43 40 42 43 42 45 48 47 48 46 38 30 28 32 37 36 38 49 49 36 29 32 35 44 46 39 36 36 36 41 45 46 48 48 46 45
21 20 19 19 20 19 18 17 16 16 15 14 14 14 14 13 13 13 12 13 13 14 15 17 18 20 22 24 25 26 28 31 35 36 35 34 34 35 39 40 36 37 42 43 41 42 42 43 45 45 47 49 46 41 41 44 45 47 47 45 42 42 41 39 34 36 43 42 35 33 39 42 38 31 32 42 46 39 35 35 37 43 46 47 48 48 48 50
21 21 19 19 18 17 17 16 16 16 15 15 15 15 15 15 14 14 13 13 13 14 16 18 19 21 23 25 25 26 28 31 33 34 32 32 33 36 39 38 36 38 39 39 40 44 46 47 47 47 47 49 48 45 44 46 44 42 43 42 38 37 41 46 45 42 43 46 44 38 31 32 36 34 34 38 39 39 41 39 40 46 51 51 51 49 51 52
20 19 18 18 17 16 16 15 15 16 16 16 17 17 17 16 16 15 15 15 14 15 17 18 20 22 23 24 25 26 27 27 29 30 30 31 31 34 37 37 37 38 36 36 40 43 46 49 49 49 47 46 48 48 50 52 48 45 46 48 47 40 41 48 51 49 46 43 45 46 39 36 35 28 26 34 39 41 45 45 42 44 49 51 50 49 50 48
19 17 17 16 16 16 15 15 16 17 17 18 18 17 17 17 17 17 16 16 16 16 17 19 20 22 24 24 24 26 25 24 26 27 27 27 27 29 32 33 34 35 32 33 37 41 45 49 50 52 51 49 49 50 51 53 52 50 49 54 56 44 41 52 56 53 51 45 42 43 41 43 43 29 20 30 41 43 46 47 45 43 45 48 49 49 48 45
17 15 15 15 14 14 14 14 15 17 17 18 18 18 18 17 17 17 17 17 16 17 18 19 20 22 23 24 24 24 22 22 23 25 25 24 24 25 26 27 29 32 31 31 33 37 44 48 48 51 54 54 53 52 50 48 52 55 53 54 59 54 48 55 59 58 57 50 42 41 45 50 48 37 30 34 41 45 47 48 47 44 44 46 47 49 49 48
16 13 13 13 13 13 14 14 15 16 17 17 18 18 18 18 18 18 16 16 17 16 17 18 20 21 22 23 22 21 20 20 22 23 23 22 22 22 23 23 24 27 29 30 30 33 38 43 44 48 54 56 55 53 51 47 47 54 56 53 57 63 63 64 64 64 65 61 50 47 54 57 51 47 49 46 39 40 45 48 47 43 43 45 47 50 52 51
14 11 11 12 13 14 14 15 15 15 16 17 18 18 18 19 19 18 17 16 16 15 15 17 19 21 22 22 21 19 18 19 21 22 21 21 20 20 20 21 22 23 25 28 29 30 32 36 40 44 51 55 53 50 51 50 46 50 55 55 55 62 68 69 67 67 70 70 63 59 63 63 59 60 63 55 41 36 40 45 47 43 41 44 46 50 52 53
13 11 9 11 13 14 15 16 16 16 17 18 18 18 19 20 19 19 18 18 16 15 15 17 18 20 21 21 20 18 17 18 20 21 20 19 19 18 17 18 20 21 22 25 29 28 28 31 34 37 43 49 51 50 50 50 50 51 53 54 56 59 62 65 67 67 70 71 70 70 69 67 67 69 68 62 55 47 40 39 43 44 42 43 47 51 53 54
Wind_Direction
291 290 290 290 289 289 289 288 288 286 285 284 282 280 279 276 274 271 269 269 269 267 261 254 249 247 247 246 245 244 241 237 232 227 226 225 224 221 215 211 207 213 216 214 216 215 212 209 208 209 208 209 213 218 219 221 222 219 211 205 213 218 220 224 201 201 227 227 217 221 196 199 247 297 297 309 230 206 192 176 171 191 199 177 169 166 157 172
292 291 290 290 289 288 287 287 286 285 284 283 281 280 278 277 275 273 270 268 267 267 264 260 254 250 248 247 246 245 245 242 235 229 228 227 225 222 218 212 209 216 215 209 209 208 207 207 206 207 207 206 210 214 214 218 220 217 213 212 224 235 233 229 212 204 230 239 216 219 196 198 204 260 294 258 195 193 188 181 184 198 219 203 183 175 162 165
293 292 291 291 290 289 288 287 286 285 284 282 281 279 277 276 274 273 271 269 267 265 264 262 259 255 252 250 248 246 245 244 240 233 231 230 226 224 222 216 212 217 218 214 211 207 206 207 206 207 208 207 209 212 213 216 218 215 211 213 226 240 236 225 217 209 223 234 227 224 218 218 194 210 293 243 190 188 187 182 187 188 201 210 197 188 170 160
295 294 293 293 292 291 290 288 288 286 284 283 282 280 278 276 274 272 271 269 267 265 263 262 261 258 255 253 251 249 245 244 243 237 234 232 229 226 225 221 217 216 219 220 218 215 212 209 208 210 211 211 212 215 217 218 219 216 212 214 223 238 237 221 216 216 219 230 236 232 229 230 193 181 274 252 209 194 190 185 186 187 189 195 194 200 187 162
297 296 295 295 294 294 293 291 290 288 287 285 284 283 281 278 275 273 271 269 267 265 263 262 260 258 256 254 253 251 248 245 243 241 238 236 233 230 227 223 221 220 220 220 219 220 219 214 211 212 211 211 214 217 222 224 223 220 216 218 222 230 231 218 213 220 220 225 237 239 231 222 198 198 236 247 234 209 204 195 187 192 186 179 180 206 216 173
296 295 294 294 294 293 293 292 291 290 288 288 287 286 284 282 279 276 273 271 268 266 263 262 260 258 256 255 253 252 250 247 245 242 239 239 237 234 231 226 224 223 224 223 219 217 218 217 214 212 211 210 212 216 223 226 226 224 221 221 221 224 230 221 212 220 222 224 232 235 229 216 204 208 210 230 242 244 238 211 190 197 190 182 177 184 217 193
293 292 292 291 291 290 290 289 288 288 287 287 286 286 285 284 283 281 278 275 272 269 266 263 260 259 257 255 253 251 250 248 247 245 239 239 240 238 234 229 226 225 225 225 222 219 216 216 216 214 212 211 211 216 221 224 227 228 225 223 218 221 228 224 218 224 224 224 226 227 222 210 206 209 200 217 234 250 258 231 201 203 195 193 181 166 184 215
291 290 289 289 288 287 287 286 286 285 285 285 284 284 283 283 283 283 281 278 276 273 270 266 262 260 258 256 254 251 249 246 246 245 241 238 239 239 236 231 227 226 226 226 223 221 218 215 215 215 215 214 214 217 219 220 226 229 228 226 220 219 223 222 222 227 228 226 221 217 215 207 208 211 200 216 232 244 258 250 225 213 201 202 189 168 171 208
289 289 289 289 288 288 287 287 286 286 286 285 284 283 283 282 282 281 281 280 278 276 274 271 267 263 259 258 255 253 250 246 243 243 242 239 239 239 238 233 229 227 227 227 225 223 221 218 217 217 218 217 216 218 218 217 222 224 225 225 222 220 221 223 224 228 231 227 219 213 209 203 204 209 205 221 235 238 246 252 244 231 215 204 195 181 176 181
288 288 288 288 288 288 287 287 287 287 287 286 286 285 284 284 282 281 281 279 278 276 274 273 271 268 263 260 258 255 251 246 243 242 241 240 240 239 238 235 231 229 227 227 226 224 222 221 221 219 219 218 218 220 217 217 222 222 222 222 222 223 221 224 225 228 233 228 221 211 203 200 200 207 212 222 234 239 243 252 253 247 236 213 200 194 187 180
286 285 284 285 285 285 285 285 285 285 285 285 284 284 283 283 282 281 280 279 278 276 274 272 271 270 267 264 260 257 254 249 245 243 240 239 241 241 239 236 233 231 228 228 227 225 223 222 223 221 221 219 219 222 220 220 224 224 223 221 221 223 221 224 227 229 232 231 228 214 202 200 198 206 217 219 228 242 248 252 255 254 247 227 206 199 195 186
284 283 283 282 282 283 283 283 283 283 283 282 282 281 281 280 279 279 278 277 276 275 274 272 269 268 267 266 263 260 257 253 248 244 241 238 239 240 240 237 234 232 230 229 228 227 226 224 224 224 223 221 221 223 221 222 225 225 224 222 222 224 221 223 228 230 231 234 234 221 209 204 198 206 217 217 223 240 247 246 251 253 247 234 213 198 197 190
285 284 283 282 282 281 281 281 282 282 282 281 280 280 279 278 277 276 275 275 274 273 272 270 269 267 265 264 264 262 260 256 251 246 243 239 238 238 239 238 236 234 231 229 228 228 228 226 226 226 225 223 223 224 221 222 226 227 228 226 224 225 223 224 230 232 231 235 236 227 218 212 204 209 216 218 221 233 243 244 244 246 241 234 222 203 197 195
285 284 283 283 282 281 281 281 282 282 282 281 281 280 279 278 277 275 274 273 272 271 269 269 267 266 265 262 262 261 260 258 254 249 245 240 238 238 238 238 237 235 233 231 229 228 229 228 226 226 226 225 226 227 223 224 228 229 230 230 228 227 226 226 232 234 231 234 236 230 226 222 215 214 217 217 217 225 238 245 243 243 240 232 227 215 204 203
284 284 283 283 283 283 283 283 283 283 282 281 282 281 281 280 279 278 276 274 272 270 269 267 266 265 264 262 260 259 258 257 255 252 248 243 239 238 237 237 236 235 235 233 232 230 229 228 228 228 227 226 228 229 227 227 229 229 231 233 232 229 227 229 235 236 232 234 235 231 228 227 224 220 218 213 212 219 230 241 244 242 240 233 229 226 215 211
284 284 283 282 283 284 284 284 284 283 282 282 283 284 284 283 283 282 280 278 276 273 270 267 265 264 262 261 259 258 256 255 253 252 250 246 241 238 238 237 236 235 235 234 234 233 231 229 228 228 227 226 227 228 227 228 228 229 232 234 234 231 228 230 237 238 233 233 234 232 229 228 227 221 216 214 210 214 222 235 241 238 237 238 233 231 223 213
286 285 284 283 283 284 284 284 285 284 284 283 285 286 287 287 286 285 284 282 280 278 275 271 267 263 261 259 258 256 255 253 251 250 249 247 244 240 238 237 236 235 235 234 233 233 232 230 228 228 228 227 226 225 225 226 227 230 232 234 235 235 229 227 236 239 234 233 233 231 229 227 229 222 210 213 214 214 219 228 236 235 235 239 237 232 225 214
288 287 286 286 285 286 286 286 286 286 285 286 288 289 290 290 289 288 286 285 283 281 278 274 270 265 261 258 257 255 254 253 250 248 247 246 245 242 239 238 236 236 235 234 233 233 233 232 229 228 227 226 225 226 227 227 229 233 235 234 235 237 233 229 235 237 233 234 233 230 227 226 230 226 209 212 218 215 218 225 231 234 233 237 239 236 230 220
289 289 289 289 289 289 289 288 288 288 289 290 291 291 292 291 290 289 288 286 284 282 278 275 272 267 263 258 256 255 253 251 250 247 245 244 244 242 240 239 237 236 236 235 233 233 233 233 231 228 226 227 228 229 229 227 229 232 233 233 235 237 236 233 233 237 234 231 232 230 226 226 228 228 222 220 219 214 218 224 229 235 235 237 241 241 235 224
290 290 291 292 292 292 291 290 290 290 292 293 293 294 293 292 291 290 289 287 285 283 279 276 271 268 264 259 255 253 251 249 248 247 244 242 241 240 240 239 238 237 236 235 234 233 233 234 233 230 228 228 228 228 225 222 224 226 226 227 232 232 233 234 229 231 233 226 227 230 226 226 227 227 224 217 214 215 217 221 227 234 236 237 240 241 237 228
291 292 293 293 293 293 292 291 292 293 295 296 296 295 294 293 292 290 289 287 284 281 277 274 270 266 263 258 254 251 249 247 246 245 244 241 239 238 237 237 238 238 237 236 235 233 233 234 234 230 227 226 225 224 222 221 225 225 222 224 230 230 229 233 225 219 231 227 223 227 225 225 226 225 223 214 211 216 218 221 227 232 234 234 236 239 237 231
294 295 295 295 295 294 294 295 296 297 298 298 297 296 294 293 291 289 287 283 279 276 274 271 267 264 260 256 251 249 247 245 243 242 242 240 238 236 235 234 236 236 236 236 236 234 233 233 232 229 227 226 224 223 221 222 226 224 220 220 227 230 226 229 225 217 228 229 223 230 229 227 228 228 227 221 216 218 219 221 224 228 233 233 235 239 237 232
299 299 299 298 297 297 298 299 300 300 300 299 299 297 295 292 289 285 282 278 275 272 271 269 266 263 259 254 249 246 244 243 241 239 239 238 236 235 234 233 233 234 234 235 236 235 234 232 230 229 229 226 225 224 222 223 225 223 219 217 221 226 226 228 228 224 227 223 220 231 232 228 228 228 226 223 220 219 219 220 221 226 233 234 235 237 232 229
303 303 301 299 299 299 301 301 301 302 304 305 304 301 295 288 281 274 272 272 271 271 273 272 269 266 263 257 252 247 243 241 239 237 237 236 235 234 233 232 231 232 233 234 235 235 235 231 228 228 228 225 225 226 222 223 225 223 220 217 217 221 224 226 227 231 239 234 223 228 233 229 226 226 225 222 221 222 221 220 220 223 229 233 234 233 230 227
306 305 303 301 301 302 303 303 305 307 309 310 307 303 292 277 269 267 270 273 274 276 278 277 273 271 267 262 256 251 246 242 238 235 234 234 234 233 232 230 230 230 231 232 234 234 233 228 225 227 226 223 224 225 223 222 224 224 221 219 218 218 220 221 216 219 237 232 219 221 230 230 227 227 227 224 221 223 222 220 221 222 226 231 232 230 230 227
307 305 303 302 301 303 304 304 308 308 308 308 304 300 290 277 272 272 276 280 279 279 281 280 277 274 271 265 261 256 250 246 241 236 233 232 233 232 230 229 228 228 228 229 230 232 231 226 225 227 226 223 223 222 222 221 222 224 221 219 219 218 218 218 213 215 228 227 218 220 226 228 229 229 229 228 225 225 224 222 222 224 226 228 229 227 229 227
307 305 303 301 300 303 304 304 304 302 302 300 296 294 288 281 278 277 279 280 278 279 280 278 278 277 274 271 267 261 254 250 245 239 234 232 231 231 229 228 227 227 227 227 228 229 228 225 226 228 226 224 223 221 221 220 221 223 222 220 219 219 220 220 216 219 226 225 220 223 226 226 227 229 231 231 228 226 225 224 222 225 227 227 228 229 229 228
306 305 303 301 301 302 302 302 300 300 299 295 293 290 285 283 280 277 277 273 273 278 277 273 275 275 274 274 271 266 261 255 249 243 237 233 231 229 228 227 225 224 225 226 227 228 227 223 226 229 226 225 224 221 219 219 220 221 223 223 220 218 221 222 221 222 226 226 221 220 226 229 223 220 225 230 231 227 224 225 224 224 228 227 229 230 226 224
307 307 306 304 302 301 303 303 302 302 299 296 296 291 288 287 281 279 277 270 271 276 274 270 270 269 270 271 271 270 267 262 255 249 242 236 232 229 228 227 225 224 224 225 224 225 225 222 224 229 225 224 226 222 218 219 220 219 222 225 221 218 220 223 223 223 225 227 222 213 217 231 225 216 216 221 227 227 226 230 229 227 229 229 229 230 225 225
310 311 309 306 305 306 307 305 304 302 298 296 294 292 292 289 285 284 277 273 276 276 270 268 266 265 267 269 269 270 270 267 261 255 249 242 235 230 229 227 226 225 225 225 224 223 224 220 220 226 225 221 223 223 219 220 219 216 221 227 223 219 221 223 224 224 226 227 222 212 210 226 227 217 216 219 221 222 222 228 231 230 231 229 228 229 228 228
311 312 312 313 314 312 309 305 304 302 296 291 288 290 291 289 290 285 275 276 280 274 267 266 265 264 265 265 264 265 267 268 265 259 254 248 242 235 230 229 228 226 224 226 225 223 224 221 220 224 223 218 217 220 220 220 219 216 220 226 224 219 220 223 223 223 227 228 224 218 214 221 223 213 214 221 221 220 219 224 229 228 229 228 226 227 228 226
311 314 317 320 319 315 310 306 304 302 296 288 285 287 288 289 289 279 276 277 275 275 270 264 264 263 262 260 258 259 263 264 262 259 257 252 249 241 233 230 229 225 224 226 227 225 225 224 222 224 224 218 214 217 220 220 219 217 219 223 223 219 219 222 222 223 227 228 226 225 222 225 227 214 209 216 221 223 224 223 225 226 228 229 225 224 225 225
313 318 322 323 321 317 313 308 304 300 295 288 282 281 282 284 282 276 279 277 273 279 273 263 263 260 258 257 256 258 260 259 256 255 257 253 252 248 240 236 231 226 224 224 225 225 225 225 224 224 226 221 214 215 220 221 220 218 218 222 222 219 219 222 223 223 227 229 228 228 227 229 231 222 213 215 216 219 225 226 225 228 231 228 224 224 225 226
316 320 323 324 322 318 315 311 304 296 291 287 282 278 276 277 276 275 278 278 276 277 270 265 265 260 257 257 256 257 258 257 254 252 254 250 250 251 244 238 234 229 227 225 223 223 224 226 226 225 227 225 218 214 219 222 222 220 219 221 223 219 219 223 226 226 227 231 231 230 229 230 232 228 221 220 218 215 221 225 222 226 233 229 224 224 225 226
317 320 322 323 324 322 320 315 308 298 290 288 284 278 274 272 274 274 276 278 276 274 272 269 265 263 262 259 255 254 256 257 252 248 250 247 243 246 245 240 236 233 230 227 227 224 221 223 227 229 229 228 222 215 216 219 222 222 220 221 224 221 217 221 227 228 227 232 235 234 232 231 233 232 225 223 222 218 220 224 218 218 225 227 223 224 225 226
318 320 321 325 326 324 323 321 314 306 295 290 285 278 275 273 274 274 275 276 275 273 275 272 265 262 262 264 262 253 251 256 255 252 253 250 244 245 249 244 236 236 233 229 229 227 223 217 216 228 231 229 224 217 215 217 219 222 223 222 223 222 218 219 224 226 226 229 233 236 236 234 235 235 229 226 224 220 224 230 224 219 223 226 225 226 227 226
320 321 323 326 326 323 323 324 320 313 300 292 283 278 279 278 277 276 274 274 275 274 273 270 267 261 257 263 267 259 252 255 256 253 252 253 248 245 248 245 237 238 238 234 232 231 228 219 209 212 218 224 225 220 216 215 214 216 224 226 225 222 219 217 219 222 223 225 227 231 235 236 237 237 231 229 227 222 226 232 229 226 228 229 229 229 230 228
321 322 324 326 326 322 322 324 323 319 309 297 288 283 284 284 281 280 276 274 274 272 268 266 268 268 261 258 262 265 262 255 255 253 250 255 255 249 246 245 241 239 238 237 235 234 230 223 217 215 212 214 222 221 217 214 213 209 207 223 228 225 221 218 217 218 221 224 226 227 228 231 238 240 235 232 230 223 225 230 229 229 231 231 229 230 231 230
322 324 327 328 326 323 322 324 325 324 315 305 299 293 290 288 285 283 279 276 273 270 267 266 269 270 264 260 262 268 265 257 258 259 254 255 258 254 248 245 243 240 238 237 234 235 233 227 222 220 218 215 217 221 217 212 213 210 199 203 220 224 223 222 221 219 219 221 226 231 233 232 235 241 239 236 233 224 220 224 226 227 230 230 228 229 231 231
325 327 331 330 327 326 326 326 327 325 319 311 306 302 297 294 291 286 281 277 272 270 269 269 269 267 265 266 265 265 266 264 262 262 260 258 258 258 253 247 244 241 238 236 234 234 234 230 225 222 223 221 214 216 218 211 209 210 205 203 210 213 217 222 224 223 221 221 222 225 235 241 243 246 244 241 238 227 217 218 222 223 226 228 227 228 230 230
329 332 333 331 330 330 330 329 328 325 321 315 310 308 305 302 299 291 283 277 272 271 271 269 268 268 270 270 266 266 271 272 265 262 263 261 260 261 257 249 244 242 237 234 232 232 230 228 224 220 221 223 219 218 221 215 210 210 208 208 213 213 211 216 222 222 221 221 222 221 220 232 245 247 244 241 238 231 217 212 218 221 221 224 226 227 229 230
332 334 333 331 331 332 332 331 328 325 324 319 315 311 308 307 304 295 285 279 275 274 273 271 270 270 271 270 270 274 275 272 268 266 267 265 263 263 259 252 247 243 239 233 229 228 227 225 223 220 216 217 219 217 220 218 211 210 211 212 216 217 211 214 219 221 222 221 221 222 216 213 226 231 235 236 234 230 222 213 214 218 219 222 225 226 227 228
334 334 333 330 331 333 334 333 333 330 328 323 319 316 312 310 306 298 291 285 281 276 273 273 273 273 274 274 274 276 276 275 275 273 272 271 268 264 260 256 251 244 239 234 229 226 225 224 226 224 219 217 217 212 212 215 211 208 208 209 214 214 210 215 216 216 223 223 222 223 217 212 233 239 237 235 231 227 224 218 212 215 218 220 223 226 226 227
335 334 331 330 334 338 339 339 341 339 334 330 327 325 324 320 315 307 300 293 288 282 278 278 279 278 278 278 276 277 279 283 285 283 278 274 270 267 262 256 252 244 238 235 232 228 223 223 225 224 220 219 221 219 216 217 218 212 205 206 212 212 210 215 212 208 214 215 218 225 222 214 227 243 241 236 232 226 225 222 214 214 218 219 221 223 223 224
338 334 331 336 341 344 345 346 347 346 344 344 343 343 342 337 329 321 310 300 295 291 286 286 287 285 285 285 284 284 286 288 291 289 283 274 268 265 262 257 252 248 241 235 233 229 223 221 222 221 218 217 218 219 218 220 223 216 207 207 211 211 211 212 212 211 211 206 202 214 223 220 225 239 246 241 234 228 224 222 215 214 216 218 220 221 220 222
339 334 337 346 349 350 353 353 353 355 356 358 360 359 357 350 341 333 323 313 306 300 296 295 295 293 292 292 291 291 291 292 292 289 282 275 267 262 262 260 255 251 245 235 232 229 224 222 221 219 218 216 215 215 214 218 219 212 208 207 205 210 213 209 210 213 210 207 205 202 202 207 215 229 242 242 236 228 223 221 219 216 215 215 217 218 219 222
338 338 344 352 356 357 0 2 3 7 10 12 14 11 4 356 349 342 333 325 318 310 305 302 300 298 297 296 294 292 291 292 291 287 283 279 273 265 261 259 256 254 248 237 232 229 226 225 222 219 218 216 216 216 216 217 214 210 211 206 199 208 215 208 208 211 205 206 213 208 194 188 196 211 230 233 234 231 223 221 222 221 220 219 218 219 220 222
340 344 353 360 3 4 8 13 16 18 21 22 22 18 11 3 355 348 340 332 325 316 310 307 303 302 301 298 294 292 292 290 287 290 290 284 278 270 261 257 255 253 250 242 234 229 228 226 222 220 218 215 214 215 216 218 216 212 214 209 199 202 212 210 209 209 204 204 213 210 197 192 196 200 209 219 225 225 219 218 220 220 220 220 220 221 221 219
341 348 2 8 10 10 12 16 19 22 24 26 26 23 18 11 3 356 346 336 329 320 313 310 306 305 303 299 296 296 295 289 286 291 295 290 282 274 264 257 253 250 249 245 238 231 230 229 225 222 221 217 214 213 214 219 218 215 216 213 205 204 208 209 209 209 205 204 208 206 200 197 196 198 206 213 216 217 215 214 216 217 216 216 217 219 218 215
341 353 10 13 11 11 10 10 14 19 21 24 26 24 21 16 9 3 354 341 332 324 316 312 308 307 306 302 299 300 297 288 283 287 294 293 287 277 264 256 254 251 246 242 239 234 231 230 227 225 224 221 216 213 213 215 216 216 217 216 210 210 211 208 207 208 208 208 208 207 205 203 196 200 213 215 210 212 213 212 214 216 215 213 215 217 217 216
340 353 11 13 11 9 7 6 8 13 17 20 24 24 23 19 13 8 2 351 341 331 321 317 313 309 308 305 301 302 300 291 282 282 287 289 287 280 267 257 256 255 246 238 234 233 231 229 227 228 228 223 218 215 215 216 216 216 217 217 214 215 216 214 211 211 211 211 212 211 212 210 203 207 217 216 208 209 211 211 215 218 216 214 216 219 218 218
338 348 5 11 10 8 8 9 8 10 16 18 20 23 23 20 16 10 6 0 353 343 331 325 320 314 310 307 304 304 307 302 291 282 281 284 285 282 272 261 257 257 251 238 230 228 230 227 225 229 230 224 219 216 216 218 219 216 214 216 217 217 218 217 216 216 215 215 216 215 216 215 212 214 218 216 213 214 212 211 217 220 219 216 215 218 219 218
Height
5877 5876 5876 5875 5875 5875 5874 5874 5874 5874 5874 5874 5874 5874 5875 5875 5875 5875 5876 5876 5876 5876 5876 5876 5877 5876 5877 5877 5877 5877 5878 5878 5879 5881 5881 5882 5882 5883 5885 5885 5886 5886 5886 5888 5889 5890 5892 5893 5894 5895 5895 5896 5897 5897 5897 5898 5898 5899 5900 5900 5900 5901 5901 5901 5901 5901 5901 5902 5902 5903 5902 5902 5902 5903 5903 5903 5903 5903 5904 5904 5904 5904 5905 5906 5907 5907 5908 5908
5874 5874 5873 5873 5873 5872 5872 5872 5872 5871 5871 5871 5872 5872 5872 5873 5873 5873 5874 5874 5874 5874 5874 5875 5875 5875 5875 5875 5876 5876 5876 5877 5878 5879 5879 5880 5881 5882 5883 5884 5885 5885 5885 5886 5886 5887 5888 5890 5891 5892 5893 5894 5895 5896 5896 5897 5897 5898 5899 5900 5899 5900 5901 5900 5900 5901 5900 5900 5902 5902 5902 5902 5902 5903 5903 5903 5903 5904 5904 5904 5905 5905 5906 5907 5907 5907 5907 5908
5872 5872 5871 5871 5871 5870 5870 5870 5869 5869 5869 5869 5869 5869 5870 5870 5870 5871 5871 5871 5872 5872 5872 5873 5873 5874 5874 5874 5874 5875 5875 5875 5876 5877 5878 5878 5880 5881 5881 5883 5883 5884 5884 5884 5884 5885 5886 5887 5889 5891 5892 5893 5894 5894 5895 5895 5896 5897 5898 5899 5899 5900 5900 5900 5900 5901 5901 5901 5902 5902 5902 5902 5902 5903 5903 5903 5903 5904 5904 5905 5905 5905 5907 5907 5907 5907 5908 5908
5870 5869 5869 5869 5868 5868 5868 5867 5867 5867 5867 5867 5867 5867 5867 5867 5868 5868 5868 5869 5869 5870 5870 5870 5871 5871 5872 5872 5872 5873 5873 5874 5875 5876 5876 5877 5878 5879 5879 5881 5882 5882 5883 5884 5885 5886 5886 5888 5889 5891 5892 5893 5894 5894 5895 5895 5895 5896 5898 5898 5899 5899 5899 5899 5900 5900 5901 5901 5902 5902 5902 5902 5902 5903 5903 5903 5903 5904 5904 5904 5905 5905 5906 5907 5908 5908 5908 5909
5868 5867 5867 5867 5866 5866 5865 5865 5865 5864 5864 5865 5864 5864 5864 5865 5865 5866 5866 5866 5866 5867 5867 5868 5868 5869 5870 5870 5871 5871 5871 5873 5873 5874 5875 5875 5876 5876 5877 5879 5880 5881 5882 5883 5884 5885 5887 5888 5889 5890 5891 5893 5894 5894 5895 5894 5895 5896 5897 5897 5898 5899 5898 5898 5899 5900 5901 5901 5902 5902 5902 5902 5903 5903 5903 5903 5903 5903 5903 5904 5905 5905 5906 5906 5908 5909 5909 5909
5866 5865 5865 5865 5864 5864 5863 5863 5863 5862 5862 5862 5862 5862 5862 5862 5862 5863 5863 5863 5864 5864 5865 5865 5866 5866 5867 5867 5869 5869 5869 5871 5871 5872 5873 5873 5874 5874 5875 5877 5879 5880 5881 5882 5883 5884 5886 5887 5888 5889 5890 5891 5892 5893 5893 5893 5894 5895 5896 5896 5897 5897 5897 5897 5899 5900 5900 5901 5901 5902 5902 5903 5903 5903 5904 5904 5904 5904 5903 5904 5905 5905 5906 5906 5907 5909 5909 5910
5864 5864 5863 5863 5862 5862 5861 5861 5861 5860 5860 5860 5860 5860 5860 5860 5860 5860 5861 5861 5861 5861 5862 5862 5863 5863 5864 5864 5866 5866 5867 5870 5870 5870 5871 5871 5872 5872 5873 5876 5877 5878 5879 5880 5882 5883 5884 5885 5887 5888 5888 5889 5890 5891 5891 5892 5893 5894 5895 5896 5896 5897 5897 5897 5899 5899 5900 5900 5901 5902 5902 5903 5903 5903 5903 5904 5904 5904 5904 5904 5905 5906 5906 5907 5907 5908 5909 5910
5862 5862 5861 5861 5860 5860 5859 5859 5858 5858 5858 5858 5858 5858 5858 5858 5858 5858 5858 5858 5858 5859 5859 5859 5860 5860 5861 5861 5862 5863 5865 5867 5867 5868 5869 5869 5869 5869 5871 5873 5875 5876 5876 5878 5879 5881 5882 5883 5885 5886 5887 5888 5888 5889 5889 5891 5892 5893 5894 5895 5896 5896 5897 5898 5898 5899 5900 5900 5901 5902 5902 5903 5903 5903 5903 5904 5904 5905 5905 5905 5906 5906 5906 5907 5907 5907 5908 5910
5860 5859 5859 5858 5858 5857 5857 5857 5856 5856 5856 5856 5856 5856 5856 5856 5856 5856 5856 5856 5856 5856 5856 5857 5857 5858 5858 5859 5859 5860 5862 5863 5864 5865 5866 5867 5867 5867 5868 5870 5872 5873 5874 5875 5877 5878 5880 5882 5883 5883 5884 5885 5886 5887 5888 5889 5890 5891 5892 5893 5895 5896 5896 5897 5898 5899 5900 5900 5900 5901 5902 5902 5903 5903 5903 5904 5904 5905 5905 5905 5906 5906 5907 5907 5907 5908 5908 5909
5858 5857 5856 5855 5855 5855 5854 5854 5854 5853 5853 5853 5853 5853 5853 5853 5853 5854 5854 5853 5853 5854 5854 5854 5854 5855 5855 5856 5856 5857 5858 5860 5861 5863 5863 5864 5864 5865 5866 5867 5869 5871 5872 5873 5874 5876 5878 5879 5880 5881 5881 5883 5885 5885 5886 5888 5888 5889 5891 5893 5894 5895 5896 5897 5898 5898 5899 5899 5899 5900 5901 5902 5902 5903 5903 5903 5904 5904 5905 5905 5906 5906 5907 5907 5908 5908 5909 5909
5855 5854 5853 5853 5852 5852 5851 5851 5851 5851 5850 5850 5850 5850 5850 5851 5851 5851 5851 5851 5851 5851 5851 5851 5852 5852 5852 5853 5853 5854 5855 5857 5859 5859 5860 5861 5861 5862 5863 5865 5866 5868 5869 5870 5872 5873 5874 5875 5876 5878 5880 5882 5883 5884 5886 5887 5887 5889 5891 5892 5893 5894 5895 5896 5897 5898 5899 5899 5898 5899 5900 5901 5902 5903 5903 5903 5903 5904 5905 5906 5906 5907 5907 5907 5908 5908 5909 5910
5852 5850 5850 5849 5849 5848 5848 5847 5847 5847 5847 5847 5847 5847 5847 5847 5847 5847 5847 5848 5848 5848 5848 5848 5848 5849 5849 5849 5850 5851 5851 5853 5855 5856 5857 5859 5859 5860 5860 5862 5863 5865 5866 5868 5869 5870 5871 5872 5874 5876 5878 5880 5882 5882 5884 5885 5886 5888 5889 5891 5893 5893 5895 5896 5897 5897 5898 5898 5898 5899 5900 5901 5901 5902 5902 5902 5903 5904 5905 5905 5906 5906 5907 5907 5907 5908 5909 5910
5848 5847 5846 5846 5845 5845 5844 5843 5843 5843 5843 5843 5842 5842 5843 5843 5843 5843 5843 5844 5844 5844 5844 5845 5845 5845 5846 5846 5846 5847 5848 5850 5852 5853 5854 5855 5856 5857 5857 5859 5860 5862 5863 5864 5866 5867 5868 5870 5872 5874 5876 5878 5879 5879 5881 5884 5885 5887 5889 5890 5891 5892 5895 5896 5896 5897 5898 5898 5898 5899 5900 5900 5900 5901 5902 5902 5903 5904 5904 5905 5906 5906 5907 5907 5907 5908 5908 5909
5845 5843 5843 5842 5841 5841 5840 5840 5839 5839 5839 5838 5838 5838 5838 5839 5839 5839 5839 5839 5840 5840 5840 5841 5841 5842 5842 5843 5843 5844 5845 5846 5848 5849 5850 5851 5853 5853 5854 5856 5857 5859 5860 5861 5863 5864 5865 5868 5870 5871 5873 5876 5877 5877 5881 5884 5885 5887 5888 5888 5890 5892 5894 5895 5895 5896 5897 5897 5898 5899 5899 5899 5900 5901 5901 5902 5903 5904 5904 5905 5906 5906 5906 5907 5907 5907 5908 5908
5841 5840 5839 5838 5837 5836 5836 5835 5835 5834 5834 5834 5833 5833 5833 5834 5834 5834 5834 5835 5835 5835 5836 5836 5837 5838 5838 5839 5840 5840 5841 5842 5844 5846 5847 5848 5850 5850 5851 5852 5854 5856 5857 5858 5859 5861 5863 5865 5867 5868 5871 5874 5875 5877 5882 5883 5884 5885 5886 5887 5890 5892 5894 5895 5894 5895 5896 5897 5897 5898 5898 5899 5899 5900 5900 5901 5902 5903 5904 5905 5905 5906 5906 5906 5907 5907 5908 5908
5837 5836 5835 5834 5833 5832 5831 5831 5830 5830 5829 5829 5828 5828 5828 5829 5829 5830 5829 5830 5830 5830 5831 5831 5832 5833 5834 5835 5836 5836 5837 5838 5840 5841 5843 5844 5846 5846 5848 5849 5851 5852 5853 5855 5856 5858 5860 5862 5864 5865 5868 5870 5872 5876 5880 5880 5881 5883 5884 5886 5889 5891 5893 5894 5893 5894 5895 5896 5896 5897 5898 5898 5899 5899 5899 5900 5901 5903 5904 5905 5905 5905 5905 5906 5906 5907 5907 5908
5833 5832 5831 5830 5829 5828 5827 5826 5825 5824 5824 5823 5823 5823 5823 5823 5824 5824 5824 5824 5825 5825 5826 5826 5827 5828 5828 5830 5831 5832 5833 5834 5835 5837 5838 5840 5842 5843 5844 5845 5847 5848 5850 5851 5853 5855 5856 5858 5860 5862 5865 5868 5870 5873 5874 5876 5879 5882 5883 5885 5888 5889 5892 5893 5892 5893 5894 5894 5895 5896 5896 5897 5898 5898 5899 5899 5901 5902 5903 5904 5904 5904 5905 5905 5905 5906 5907 5907
5829 5828 5827 5826 5825 5823 5822 5821 5820 5819 5818 5818 5817 5817 5817 5817 5817 5818 5818 5818 5819 5820 5820 5820 5821 5821 5823 5825 5826 5827 5828 5829 5830 5832 5834 5835 5837 5839 5840 5841 5843 5844 5846 5848 5850 5851 5853 5855 5857 5859 5861 5864 5867 5870 5872 5876 5880 5881 5881 5884 5887 5887 5890 5891 5891 5892 5892 5893 5894 5895 5895 5896 5896 5896 5897 5899 5900 5901 5902 5903 5904 5904 5904 5905 5905 5906 5906 5907
5824 5823 5822 5821 5820 5819 5817 5816 5815 5813 5813 5812 5811 5811 5811 5811 5811 5811 5811 5812 5812 5813 5813 5814 5815 5815 5817 5820 5821 5821 5823 5824 5826 5827 5829 5831 5832 5835 5836 5837 5839 5840 5842 5844 5846 5848 5849 5851 5852 5854 5858 5863 5867 5869 5872 5876 5878 5877 5879 5883 5884 5885 5887 5889 5890 5891 5890 5891 5892 5893 5895 5895 5895 5895 5896 5898 5899 5900 5901 5901 5902 5903 5903 5904 5904 5905 5906 5906
5819 5818 5817 5815 5814 5813 5812 5810 5809 5808 5807 5806 5805 5805 5804 5803 5803 5804 5804 5804 5805 5805 5806 5807 5808 5808 5810 5813 5815 5816 5817 5819 5820 5822 5824 5826 5828 5830 5832 5833 5834 5836 5837 5840 5842 5844 5846 5847 5848 5854 5860 5863 5864 5866 5869 5871 5870 5871 5876 5880 5880 5882 5885 5887 5889 5890 5888 5889 5891 5891 5894 5894 5894 5895 5896 5897 5898 5899 5900 5900 5901 5902 5903 5903 5904 5905 5905 5906
5814 5813 5811 5810 5809 5807 5806 5804 5803 5801 5800 5799 5799 5798 5797 5796 5796 5796 5797 5797 5798 5798 5798 5799 5800 5801 5803 5805 5808 5809 5811 5813 5815 5817 5818 5821 5823 5824 5827 5828 5830 5831 5834 5836 5837 5839 5841 5842 5847 5855 5858 5858 5859 5861 5864 5864 5864 5868 5874 5876 5877 5879 5883 5884 5887 5889 5886 5886 5889 5890 5891 5892 5892 5894 5895 5895 5896 5898 5899 5899 5900 5901 5902 5902 5903 5904 5905 5905
5809 5807 5806 5804 5803 5801 5800 5798 5796 5795 5794 5793 5792 5791 5791 5790 5789 5789 5790 5790 5791 5791 5792 5793 5793 5794 5796 5798 5800 5802 5804 5806 5808 5811 5812 5815 5817 5818 5821 5823 5825 5827 5830 5831 5831 5834 5836 5839 5847 5853 5852 5853 5855 5856 5858 5860 5862 5866 5870 5872 5874 5876 5880 5881 5883 5887 5885 5884 5887 5887 5888 5890 5891 5893 5893 5894 5895 5896 5897 5898 5899 5900 5900 5901 5902 5903 5904 5904
5803 5802 5800 5799 5798 5796 5794 5792 5790 5789 5788 5787 5787 5786 5785 5785 5784 5784 5784 5784 5785 5786 5786 5787 5787 5788 5789 5791 5793 5795 5796 5798 5801 5804 5806 5809 5810 5812 5815 5818 5820 5822 5824 5825 5826 5829 5833 5838 5846 5848 5847 5849 5851 5852 5855 5857 5859 5863 5866 5868 5870 5873 5876 5878 5880 5884 5883 5882 5885 5886 5886 5888 5889 5890 5891 5892 5895 5896 5896 5897 5898 5899 5899 5900 5901 5902 5903 5903
5799 5797 5795 5794 5793 5791 5789 5787 5786 5785 5784 5783 5782 5781 5781 5781 5781 5781 5781 5781 5781 5782 5782 5782 5782 5782 5783 5784 5786 5788 5789 5791 5794 5797 5800 5802 5803 5806 5810 5812 5815 5816 5818 5820 5822 5825 5829 5837 5843 5841 5841 5845 5846 5849 5852 5854 5856 5859 5862 5864 5866 5869 5871 5875 5879 5882 5880 5879 5882 5884 5883 5885 5886 5887 5888 5890 5893 5894 5895 5895 5896 5897 5897 5898 5899 5901 5902 5902
5794 5792 5791 5789 5788 5786 5785 5783 5782 5781 5780 5779 5779 5779 5779 5778 5778 5778 5778 5778 5777 5779 5779 5778 5778 5778 5778 5779 5781 5782 5783 5784 5787 5790 5793 5795 5797 5800 5804 5806 5809 5811 5813 5815 5818 5821 5825 5832 5835 5832 5835 5840 5842 5845 5849 5851 5853 5855 5858 5861 5863 5865 5866 5870 5875 5877 5874 5873 5878 5881 5880 5881 5883 5885 5886 5888 5891 5892 5893 5893 5894 5896 5896 5896 5898 5900 5901 5901
5790 5788 5787 5785 5784 5782 5781 5780 5779 5778 5777 5777 5777 5777 5776 5776 5776 5776 5776 5775 5773 5775 5776 5773 5774 5774 5773 5775 5776 5776 5777 5778 5780 5783 5786 5789 5791 5794 5797 5800 5803 5805 5807 5810 5812 5815 5819 5826 5827 5826 5831 5836 5838 5841 5844 5847 5849 5851 5854 5857 5858 5860 5861 5864 5868 5869 5867 5870 5877 5878 5877 5879 5881 5883 5884 5886 5888 5889 5890 5891 5893 5894 5894 5895 5896 5898 5899 5900
5786 5785 5783 5782 5781 5779 5778 5777 5776 5775 5775 5775 5774 5774 5773 5773 5773 5773 5774 5772 5769 5771 5773 5770 5771 5770 5769 5771 5771 5772 5772 5773 5775 5777 5779 5782 5784 5787 5791 5794 5796 5799 5801 5803 5805 5809 5814 5820 5821 5821 5827 5830 5832 5837 5840 5844 5846 5846 5849 5851 5853 5856 5857 5859 5862 5863 5864 5868 5873 5873 5874 5877 5879 5880 5882 5884 5886 5887 5888 5889 5890 5891 5892 5893 5894 5896 5897 5898
5783 5782 5780 5779 5778 5777 5775 5774 5774 5773 5772 5771 5771 5770 5769 5769 5770 5769 5770 5769 5765 5767 5769 5767 5768 5767 5766 5767 5767 5768 5768 5769 5770 5771 5774 5776 5778 5782 5784 5786 5789 5792 5794 5797 5801 5805 5808 5815 5817 5817 5821 5825 5828 5833 5837 5840 5840 5843 5846 5846 5848 5852 5853 5856 5859 5859 5861 5864 5866 5869 5872 5872 5873 5876 5879 5881 5882 5883 5885 5886 5888 5889 5890 5891 5892 5894 5896 5897
5780 5779 5778 5776 5775 5774 5773 5772 5770 5769 5768 5767 5767 5766 5765 5766 5765 5765 5766 5764 5762 5764 5764 5764 5765 5764 5764 5764 5764 5765 5765 5765 5766 5766 5769 5771 5772 5776 5777 5779 5782 5785 5787 5790 5795 5798 5803 5810 5811 5810 5815 5821 5825 5829 5832 5833 5835 5840 5841 5839 5843 5848 5850 5853 5854 5856 5858 5857 5859 5865 5869 5868 5868 5872 5875 5877 5878 5880 5884 5885 5886 5887 5888 5889 5891 5892 5894 5895
5778 5776 5775 5774 5772 5772 5771 5769 5768 5766 5765 5764 5764 5763 5763 5762 5762 5762 5762 5760 5760 5761 5760 5760 5761 5761 5761 5761 5761 5762 5762 5762 5763 5764 5765 5766 5768 5770 5771 5774 5777 5779 5782 5784 5788 5793 5797 5802 5803 5803 5810 5817 5820 5824 5826 5826 5830 5836 5835 5834 5841 5846 5848 5849 5851 5853 5852 5849 5854 5862 5864 5864 5866 5869 5872 5874 5877 5879 5882 5883 5884 5885 5885 5888 5890 5891 5893 5893
5775 5774 5772 5771 5769 5768 5767 5766 5765 5763 5762 5761 5761 5760 5760 5759 5759 5759 5758 5757 5758 5757 5757 5757 5758 5758 5759 5758 5758 5759 5759 5759 5760 5761 5761 5762 5764 5766 5767 5770 5772 5774 5777 5779 5783 5789 5791 5794 5797 5798 5803 5809 5813 5816 5819 5820 5825 5830 5830 5831 5838 5842 5844 5845 5847 5848 5844 5845 5853 5859 5860 5859 5860 5865 5870 5872 5875 5877 5880 5880 5880 5882 5883 5885 5888 5890 5892 5893
5773 5771 5769 5768 5766 5765 5764 5762 5761 5760 5759 5758 5757 5757 5757 5756 5756 5756 5754 5755 5754 5753 5754 5755 5754 5755 5756 5756 5755 5757 5757 5756 5758 5758 5758 5760 5761 5761 5764 5765 5765 5768 5773 5775 5779 5784 5786 5789 5794 5794 5796 5803 5808 5810 5812 5815 5820 5825 5826 5828 5832 5837 5839 5839 5841 5842 5841 5845 5852 5856 5858 5855 5856 5863 5867 5869 5872 5875 5877 5877 5878 5880 5881 5883 5886 5888 5890 5891
5770 5768 5766 5765 5763 5762 5760 5759 5757 5756 5755 5755 5754 5754 5754 5753 5753 5752 5751 5751 5750 5750 5751 5751 5751 5752 5753 5752 5752 5754 5754 5754 5755 5756 5755 5757 5757 5758 5760 5759 5760 5765 5769 5770 5773 5778 5781 5785 5788 5789 5790 5796 5802 5805 5808 5811 5815 5819 5822 5824 5827 5832 5834 5834 5837 5839 5840 5844 5849 5853 5854 5851 5854 5861 5864 5864 5868 5872 5874 5875 5877 5880 5879 5880 5884 5886 5887 5889
5767 5765 5763 5762 5760 5758 5756 5755 5753 5752 5751 5751 5751 5750 5751 5750 5749 5749 5748 5747 5747 5747 5747 5747 5747 5748 5749 5748 5749 5750 5750 5750 5752 5753 5753 5754 5755 5755 5755 5754 5758 5762 5764 5765 5768 5772 5777 5780 5782 5784 5787 5791 5797 5801 5804 5808 5812 5814 5818 5820 5822 5827 5831 5833 5835 5838 5841 5844 5846 5848 5848 5848 5852 5858 5862 5864 5865 5869 5872 5873 5875 5878 5877 5877 5880 5883 5885 5886
5764 5762 5761 5759 5757 5754 5753 5751 5749 5748 5747 5747 5747 5747 5747 5746 5745 5745 5744 5744 5744 5743 5743 5744 5744 5744 5744 5744 5745 5747 5747 5746 5748 5750 5750 5750 5752 5751 5750 5752 5756 5758 5759 5762 5764 5766 5770 5775 5780 5782 5783 5785 5791 5797 5800 5803 5806 5810 5814 5815 5816 5822 5829 5832 5833 5836 5841 5843 5843 5843 5844 5847 5850 5853 5858 5862 5862 5865 5867 5866 5870 5874 5874 5874 5878 5880 5882 5884
5761 5760 5758 5756 5754 5751 5749 5748 5746 5744 5743 5743 5743 5743 5742 5742 5741 5741 5741 5740 5741 5740 5740 5740 5740 5741 5741 5739 5740 5742 5744 5743 5743 5746 5746 5745 5747 5746 5746 5751 5753 5753 5755 5757 5759 5761 5765 5770 5776 5778 5777 5779 5784 5792 5795 5798 5802 5806 5808 5809 5812 5820 5826 5828 5830 5833 5837 5838 5839 5840 5841 5845 5846 5848 5853 5856 5858 5861 5862 5863 5869 5872 5871 5873 5876 5878 5881 5882
5758 5757 5755 5753 5751 5749 5747 5745 5743 5742 5741 5740 5740 5739 5739 5738 5738 5738 5738 5737 5737 5737 5738 5737 5736 5737 5737 5737 5736 5735 5740 5742 5739 5741 5742 5739 5740 5741 5743 5746 5749 5749 5751 5753 5756 5758 5759 5764 5768 5769 5771 5774 5778 5783 5787 5791 5797 5802 5805 5807 5811 5816 5820 5822 5825 5828 5831 5833 5835 5837 5839 5841 5841 5842 5847 5849 5853 5859 5861 5863 5869 5870 5870 5873 5875 5876 5878 5880
5756 5755 5753 5750 5748 5746 5745 5743 5741 5740 5738 5737 5737 5736 5735 5735 5734 5734 5734 5734 5733 5733 5734 5733 5731 5733 5734 5734 5732 5730 5735 5738 5734 5736 5738 5734 5733 5736 5738 5740 5743 5746 5747 5750 5752 5751 5752 5758 5761 5763 5767 5770 5772 5775 5780 5785 5791 5796 5801 5804 5806 5809 5812 5815 5818 5821 5826 5829 5832 5834 5836 5838 5837 5838 5842 5845 5850 5858 5861 5863 5866 5868 5869 5872 5874 5875 5876 5878
5754 5752 5750 5747 5746 5744 5742 5740 5738 5737 5736 5734 5734 5733 5732 5731 5731 5731 5730 5730 5730 5729 5729 5729 5728 5729 5730 5729 5729 5727 5728 5731 5730 5731 5733 5730 5728 5729 5732 5734 5737 5740 5742 5745 5745 5744 5748 5753 5756 5759 5763 5765 5767 5769 5773 5779 5784 5789 5794 5796 5798 5803 5808 5811 5813 5817 5822 5826 5829 5832 5833 5835 5835 5835 5840 5843 5847 5854 5858 5860 5863 5865 5867 5870 5872 5873 5874 5876
5751 5749 5747 5745 5743 5741 5739 5737 5736 5734 5733 5732 5731 5730 5729 5728 5727 5728 5726 5726 5726 5725 5725 5725 5725 5725 5724 5724 5726 5723 5722 5726 5727 5726 5726 5725 5723 5722 5724 5728 5731 5734 5738 5739 5740 5741 5744 5747 5751 5755 5757 5758 5762 5764 5766 5772 5778 5783 5787 5788 5790 5796 5802 5807 5809 5813 5818 5822 5826 5830 5832 5834 5835 5834 5837 5842 5844 5849 5855 5858 5860 5862 5865 5867 5868 5869 5871 5874
5748 5746 5744 5742 5740 5738 5737 5735 5733 5732 5730 5729 5728 5727 5726 5725 5724 5724 5723 5722 5722 5721 5721 5721 5721 5720 5720 5721 5721 5719 5719 5721 5721 5722 5720 5718 5718 5715 5715 5722 5727 5728 5731 5734 5735 5735 5735 5738 5744 5748 5750 5752 5757 5761 5764 5768 5773 5780 5783 5785 5789 5794 5798 5802 5804 5808 5813 5818 5822 5826 5830 5835 5836 5832 5832 5837 5840 5844 5851 5856 5858 5860 5862 5863 5865 5867 5869 5871
5746 5744 5742 5740 5738 5736 5734 5733 5731 5729 5728 5727 5726 5724 5723 5722 5721 5720 5719 5718 5718 5718 5718 5717 5717 5717 5716 5717 5717 5715 5715 5715 5715 5717 5714 5712 5712 5709 5708 5716 5721 5722 5724 5726 5726 5724 5726 5732 5736 5739 5744 5747 5753 5758 5761 5763 5768 5773 5777 5781 5786 5791 5796 5800 5802 5806 5809 5813 5817 5821 5825 5831 5831 5826 5826 5831 5835 5840 5847 5852 5854 5856 5859 5860 5861 5863 5866 5869
5745 5743 5741 5738 5736 5734 5732 5730 5729 5727 5726 5724 5723 5722 5720 5719 5718 5716 5716 5715 5714 5715 5714 5713 5714 5713 5712 5713 5713 5711 5710 5710 5709 5711 5709 5706 5705 5703 5704 5708 5712 5714 5716 5716 5715 5717 5724 5730 5732 5735 5740 5742 5745 5749 5751 5753 5758 5762 5766 5772 5778 5783 5790 5796 5799 5805 5807 5810 5814 5816 5820 5827 5825 5820 5823 5827 5831 5838 5843 5847 5850 5852 5854 5856 5857 5860 5863 5866
5743 5741 5739 5736 5734 5732 5730 5728 5726 5725 5723 5722 5720 5719 5717 5716 5715 5714 5713 5712 5712 5712 5711 5710 5710 5710 5709 5709 5709 5707 5706 5705 5704 5704 5703 5701 5699 5698 5697 5699 5703 5705 5706 5707 5710 5717 5724 5726 5726 5730 5734 5737 5740 5743 5745 5747 5749 5753 5759 5765 5770 5776 5784 5790 5794 5798 5800 5804 5810 5812 5816 5822 5820 5815 5818 5822 5827 5835 5839 5842 5847 5848 5849 5852 5854 5856 5859 5861
5741 5739 5737 5735 5732 5730 5728 5725 5724 5722 5721 5719 5717 5716 5714 5713 5712 5711 5710 5710 5709 5709 5708 5708 5707 5706 5705 5704 5704 5703 5702 5701 5699 5698 5697 5696 5694 5693 5690 5691 5696 5697 5697 5703 5708 5712 5716 5717 5718 5722 5726 5730 5735 5738 5741 5742 5743 5748 5756 5761 5767 5773 5777 5782 5786 5788 5789 5796 5804 5807 5812 5819 5819 5815 5813 5816 5824 5832 5835 5837 5839 5841 5844 5847 5849 5852 5854 5855
5739 5737 5735 5733 5731 5728 5726 5724 5723 5721 5719 5717 5715 5713 5712 5711 5710 5709 5708 5707 5707 5706 5705 5704 5703 5702 5701 5700 5699 5699 5697 5697 5696 5694 5692 5690 5689 5688 5686 5686 5689 5689 5691 5698 5701 5703 5706 5708 5711 5714 5718 5722 5727 5729 5732 5733 5735 5742 5748 5754 5762 5767 5769 5772 5775 5778 5784 5791 5795 5800 5806 5812 5815 5815 5812 5813 5819 5825 5828 5831 5833 5834 5837 5839 5842 5846 5848 5850
5738 5736 5734 5732 5730 5728 5726 5724 5722 5720 5718 5716 5714 5712 5711 5710 5708 5707 5706 5705 5704 5704 5703 5702 5700 5699 5698 5697 5696 5695 5694 5693 5691 5689 5687 5685 5684 5682 5681 5682 5683 5683 5686 5691 5692 5695 5699 5700 5704 5708 5712 5717 5721 5721 5722 5725 5730 5736 5739 5744 5752 5757 5760 5763 5765 5770 5779 5785 5788 5794 5801 5805 5807 5810 5809 5809 5813 5818 5823 5828 5830 5832 5834 5836 5840 5843 5845 5849
5736 5735 5733 5730 5729 5727 5725 5723 5721 5719 5717 5715 5713 5712 5710 5709 5707 5706 5704 5703 5702 5701 5700 5699 5698 5696 5695 5694 5692 5691 5690 5689 5687 5684 5682 5680 5678 5677 5677 5678 5678 5678 5681 5683 5686 5689 5690 5691 5696 5701 5703 5708 5711 5712 5714 5719 5726 5730 5732 5736 5740 5745 5750 5753 5758 5765 5772 5778 5783 5790 5797 5799 5801 5804 5804 5804 5808 5812 5817 5822 5825 5827 5830 5834 5839 5842 5844 5850
5736 5734 5732 5730 5728 5727 5725 5723 5721 5719 5717 5715 5713 5712 5710 5708 5707 5705 5703 5702 5701 5699 5698 5697 5695 5694 5692 5691 5689 5688 5687 5685 5682 5680 5678 5676 5674 5673 5673 5673 5674 5674 5676 5678 5680 5682 5682 5685 5691 5694 5696 5699 5702 5706 5711 5716 5720 5724 5726 5730 5734 5737 5740 5744 5752 5760 5766 5771 5777 5782 5786 5790 5794 5796 5796 5797 5802 5807 5811 5815 5819 5822 5825 5830 5834 5836 5840 5844
5735 5733 5731 5730 5728 5726 5724 5722 5721 5719 5717 5715 5713 5711 5710 5708 5706 5704 5703 5701 5699 5698 5696 5695 5693 5691 5690 5688 5686 5685 5683 5682 5679 5676 5675 5673 5671 5669 5669 5670 5670 5671 5671 5673 5675 5676 5678 5681 5685 5687 5688 5691 5697 5704 5708 5711 5715 5718 5720 5725 5730 5732 5733 5738 5745 5752 5758 5763 5768 5772 5775 5780 5787 5788 5786 5789 5798 5804 5806 5810 5814 5818 5822 5826 5828 5830 5834 5837
5734 5732 5730 5729 5728 5726 5724 5722 5720 5718 5716 5715 5713 5711 5709 5708 5706 5704 5702 5700 5698 5696 5694 5692 5690 5688 5687 5685 5684 5682 5680 5678 5676 5674 5672 5670 5668 5667 5666 5666 5667 5667 5668 5670 5671 5672 5674 5676 5679 5681 5681 5687 5696 5702 5705 5707 5710 5712 5714 5719 5723 5725 5730 5736 5742 5747 5751 5755 5759 5762 5766 5774 5780 5779 5778 5785 5795 5801 5802 5807 5812 5815 5819 5822 5824 5826 5829 5833
5733 5731 5729 5728 5727 5725 5723 5721 5719 5717 5716 5714 5713 5711 5709 5707 5706 5703 5701 5699 5696 5694 5692 5690 5687 5685 5684 5682 5681 5679 5677 5675 5673 5670 5669 5667 5666 5665 5664 5664 5664 5664 5665 5666 5667 5669 5670 5672 5675 5677 5679 5684 5691 5695 5698 5701 5701 5701 5707 5713 5717 5720 5726 5732 5737 5742 5746 5749 5752 5757 5762 5767 5771 5772 5774 5781 5791 5798 5802 5805 5809 5812 5814 5817 5819 5821 5824 5828